| time (UTC) | temp F | wind direction | speed knots | gust knots | rain 1hr in | rain 24hr in | rain mn in | humidity % | barometer mb |
| 20260504204357 | 82 | 20 | 5.2 | 14.8 | 0.00 | 0.00 | 0.00 | 28 | 1001.7 |
| 20260504203850 | 82 | 313 | 4.3 | 11.3 | 0.00 | 0.00 | 0.00 | 28 | 1001.7 |
| 20260504203347 | 82 | 267 | 4.3 | 13.9 | 0.00 | 0.00 | 0.00 | 27 | 1001.7 |
| 20260504202839 | 82 | 328 | 5.2 | 13.9 | 0.00 | 0.00 | 0.00 | 27 | 1001.7 |
| 20260504202333 | 82 | 24 | 7.0 | 13.9 | 0.00 | 0.00 | 0.00 | 27 | 1001.8 |
| 20260504201827 | 82 | 344 | 6.1 | 13.9 | 0.00 | 0.00 | 0.00 | 27 | 1001.6 |
| 20260504200308 | 83 | 302 | 5.2 | 13.0 | 0.00 | 0.00 | 0.00 | 24 | 1001.7 |
| 20260504195258 | 83 | 338 | 4.3 | 12.2 | 0.00 | 0.00 | 0.00 | 25 | 1001.5 |
| 20260504194750 | 84 | 344 | 5.2 | 13.0 | 0.00 | 0.00 | 0.00 | 25 | 1001.5 |
| 20260504194245 | 84 | 316 | 6.1 | 13.0 | 0.00 | 0.00 | 0.00 | 25 | 1001.5 |
| 20260504193740 | 84 | 300 | 4.3 | 13.9 | 0.00 | 0.00 | 0.00 | 24 | 1001.5 |
| 20260504193234 | 84 | 33 | 4.3 | 13.9 | 0.00 | 0.00 | 0.00 | 24 | 1001.5 |
| 20260504192726 | 84 | 293 | 6.1 | 16.5 | 0.00 | 0.00 | 0.00 | 25 | 1001.5 |
| 20260504191715 | 84 | 276 | 4.3 | 12.2 | 0.00 | 0.00 | 0.00 | 24 | 1001.4 |
| 20260504191209 | 84 | 299 | 5.2 | 12.2 | 0.00 | 0.00 | 0.00 | 24 | 1001.4 |
| 20260504190157 | 85 | 288 | 4.3 | 12.2 | 0.00 | 0.00 | 0.00 | 24 | 1001.5 |
| 20260504185652 | 84 | 339 | 3.5 | 12.2 | 0.00 | 0.00 | 0.00 | 24 | 1001.4 |
| 20260504185149 | 84 | 325 | 5.2 | 14.8 | 0.00 | 0.00 | 0.00 | 22 | 1001.4 |
| 20260504184149 | 84 | 281 | 4.3 | 12.2 | 0.00 | 0.00 | 0.00 | 23 | 1001.4 |
| 20260504183649 | 83 | 265 | 4.3 | 13.9 | 0.00 | 0.00 | 0.00 | 21 | 1001.4 |
| 20260504183148 | 83 | 285 | 4.3 | 13.9 | 0.00 | 0.00 | 0.00 | 24 | 1001.4 |
| 20260504182648 | 83 | 273 | 6.1 | 14.8 | 0.00 | 0.00 | 0.00 | 22 | 1001.5 |
| 20260504182148 | 83 | 267 | 6.1 | 14.8 | 0.00 | 0.00 | 0.00 | 21 | 1001.6 |
| 20260504181648 | 83 | 315 | 6.1 | 13.9 | 0.00 | 0.00 | 0.00 | 21 | 1001.5 |
| 20260504181149 | 83 | 292 | 5.2 | 13.9 | 0.00 | 0.00 | 0.00 | 22 | 1001.7 |
| 20260504180649 | 83 | 296 | 4.3 | 12.2 | 0.00 | 0.00 | 0.00 | 21 | 1001.6 |
| 20260504175645 | 82 | 288 | 6.1 | 12.2 | 0.00 | 0.00 | 0.00 | 21 | 1001.6 |
| 20260504175143 | 82 | 287 | 6.1 | 14.8 | 0.00 | 0.00 | 0.00 | 23 | 1001.6 |
| 20260504174143 | 82 | 257 | 5.2 | 13.9 | 0.00 | 0.00 | 0.00 | 24 | 1001.7 |
| 20260504173644 | 81 | 323 | 5.2 | 13.9 | 0.00 | 0.00 | 0.00 | 25 | 1001.8 |
| 20260504173143 | 81 | 236 | 5.2 | 13.9 | 0.00 | 0.00 | 0.00 | 24 | 1001.8 |
| 20260504171645 | 81 | 313 | 5.2 | 13.0 | 0.00 | 0.00 | 0.00 | 26 | 1002.0 |
| 20260504171143 | 81 | 294 | 5.2 | 11.3 | 0.00 | 0.00 | 0.00 | 25 | 1002.0 |
| 20260504170644 | 80 | 290 | 5.2 | 13.9 | 0.00 | 0.00 | 0.00 | 27 | 1002.1 |
| 20260504170144 | 80 | 284 | 4.3 | 13.9 | 0.00 | 0.00 | 0.00 | 25 | 1002.2 |
| 20260504160126 | 74 | 279 | 3.5 | 8.7 | 0.00 | 0.00 | 0.00 | 38 | 1002.3 |
| 20260504150520 | 67 | 284 | 1.7 | 6.1 | 0.00 | 0.00 | 0.00 | 47 | 1002.7 |
| 20260504140916 | 61 | 290 | 2.6 | 6.1 | 0.00 | 0.00 | 0.00 | 54 | 1002.7 |
| 20260504140410 | 61 | 288 | 2.6 | 7.0 | 0.00 | 0.00 | 0.00 | 54 | 1002.7 |
| 20260504130802 | 56 | 293 | 0.0 | 4.3 | 0.00 | 0.00 | 0.00 | 59 | 1002.4 |
| 20260504130258 | 56 | 316 | 0.0 | 1.7 | 0.00 | 0.00 | 0.00 | 63 | 1002.3 |
| 20260504120146 | 52 | 32 | 0.0 | 0.0 | 0.00 | 0.00 | 0.00 | 67 | 1001.7 |
| 20260504081513 | 58 | 32 | 0.0 | 0.9 | 0.00 | 0.00 | 0.00 | 50 | 1003.4 |
| 20260504081006 | 58 | 32 | 0.0 | 0.9 | 0.00 | 0.00 | 0.00 | 50 | 1003.4 |
| 20260504080502 | 58 | 32 | 0.0 | 0.9 | 0.00 | 0.00 | 0.00 | 50 | 1003.5 |
| 20260504070349 | 57 | 38 | 0.0 | 0.0 | 0.00 | 0.00 | 0.00 | 53 | 1004.7 |
| 20260504060237 | 57 | 38 | 0.0 | 0.9 | 0.00 | 0.00 | 0.00 | 52 | 1005.8 |
| 20260504050648 | 58 | 38 | 0.0 | 0.0 | 0.00 | 0.00 | 0.00 | 48 | 1006.2 |
| 20260504050148 | 58 | 38 | 0.0 | 0.0 | 0.00 | 0.00 | 0.00 | 48 | 1006.2 |
| 20260504045645 | 59 | 38 | 0.0 | 0.0 | 0.00 | 0.00 | 0.00 | 48 | 1006.2 |
| 20260504045143 | 59 | 38 | 0.0 | 0.0 | 0.00 | 0.00 | 0.00 | 48 | 1006.2 |
| 20260504044643 | 59 | 38 | 0.0 | 0.0 | 0.00 | 0.00 | 0.00 | 47 | 1006.3 |
| 20260504044142 | 60 | 38 | 0.0 | 0.0 | 0.00 | 0.00 | 0.00 | 46 | 1006.4 |
| 20260504043641 | 60 | 38 | 0.0 | 0.0 | 0.00 | 0.00 | 0.00 | 46 | 1006.5 |
| 20260504043139 | 60 | 38 | 0.0 | 0.0 | 0.00 | 0.00 | 0.00 | 47 | 1006.7 |
| 20260504042640 | 61 | 38 | 0.0 | 0.0 | 0.00 | 0.00 | 0.00 | 45 | 1006.8 |
| 20260504042138 | 61 | 38 | 0.0 | 0.0 | 0.00 | 0.00 | 0.00 | 45 | 1006.7 |
| 20260504041638 | 61 | 38 | 0.0 | 0.0 | 0.00 | 0.00 | 0.00 | 45 | 1006.8 |
| 20260504035629 | 61 | 38 | 0.0 | 0.0 | 0.00 | 0.00 | 0.00 | 45 | 1007.1 |
| 20260504035126 | 62 | 38 | 0.0 | 0.0 | 0.00 | 0.00 | 0.00 | 45 | 1007.2 |
| 20260504034628 | 62 | 38 | 0.0 | 0.0 | 0.00 | 0.00 | 0.00 | 44 | 1007.3 |
| 20260504034122 | 62 | 38 | 0.0 | 0.0 | 0.00 | 0.00 | 0.00 | 44 | 1007.3 |
| 20260504033624 | 62 | 38 | 0.0 | 0.0 | 0.00 | 0.00 | 0.00 | 45 | 1007.3 |
| 20260504033122 | 62 | 38 | 0.0 | 0.0 | 0.00 | 0.00 | 0.00 | 44 | 1007.3 |
| 20260504032623 | 62 | 38 | 0.0 | 0.0 | 0.00 | 0.00 | 0.00 | 44 | 1007.4 |
| 20260504032124 | 62 | 38 | 0.0 | 0.0 | 0.00 | 0.00 | 0.00 | 44 | 1007.3 |
| 20260504031622 | 62 | 38 | 0.0 | 0.0 | 0.00 | 0.00 | 0.00 | 42 | 1007.4 |
| 20260504031122 | 63 | 38 | 0.0 | 0.0 | 0.00 | 0.00 | 0.00 | 43 | 1007.3 |
| 20260504030623 | 63 | 38 | 0.0 | 0.0 | 0.00 | 0.00 | 0.00 | 41 | 1007.3 |
| 20260504025124 | 65 | 38 | 0.0 | 0.0 | 0.00 | 0.00 | 0.00 | 41 | 1007.4 |
| 20260504024622 | 65 | 38 | 0.0 | 0.9 | 0.00 | 0.00 | 0.00 | 40 | 1007.5 |
| 20260504024122 | 66 | 38 | 0.0 | 0.9 | 0.00 | 0.00 | 0.00 | 39 | 1007.4 |
| 20260504023622 | 66 | 38 | 0.0 | 0.9 | 0.00 | 0.00 | 0.00 | 38 | 1007.5 |
| 20260504023122 | 66 | 38 | 0.0 | 0.0 | 0.00 | 0.00 | 0.00 | 38 | 1007.5 |
| 20260504022625 | 67 | 38 | 0.0 | 0.0 | 0.00 | 0.00 | 0.00 | 38 | 1007.5 |
| 20260504022125 | 67 | 38 | 0.0 | 2.6 | 0.00 | 0.00 | 0.00 | 37 | 1007.5 |
| 20260504021622 | 68 | 38 | 0.9 | 2.6 | 0.00 | 0.00 | 0.00 | 37 | 1007.6 |
| 20260504020612 | 69 | 38 | 0.9 | 2.6 | 0.00 | 0.00 | 0.00 | 36 | 1007.6 |
| 20260504014546 | 70 | 38 | 0.9 | 3.5 | 0.00 | 0.00 | 0.00 | 34 | 1007.6 |
| 20260504013535 | 70 | 36 | 0.9 | 3.5 | 0.00 | 0.00 | 0.00 | 34 | 1007.5 |
| 20260504012523 | 71 | 37 | 0.9 | 2.6 | 0.00 | 0.00 | 0.00 | 33 | 1007.5 |
| 20260504012016 | 71 | 37 | 1.7 | 2.6 | 0.00 | 0.00 | 0.00 | 32 | 1007.6 |
| 20260504011512 | 71 | 37 | 1.7 | 3.5 | 0.00 | 0.00 | 0.00 | 32 | 1007.5 |
| 20260504011005 | 72 | 21 | 1.7 | 3.5 | 0.00 | 0.00 | 0.00 | 32 | 1007.6 |
| 20260504010459 | 72 | 36 | 1.7 | 5.2 | 0.00 | 0.00 | 0.00 | 31 | 1007.6 |
| 20260504005954 | 72 | 48 | 2.6 | 5.2 | 0.00 | 0.00 | 0.00 | 31 | 1007.6 |
| 20260504004941 | 74 | 34 | 0.9 | 2.6 | 0.00 | 0.00 | 0.00 | 29 | 1007.7 |
| 20260504004435 | 74 | 23 | 0.9 | 2.6 | 0.00 | 0.00 | 0.00 | 28 | 1007.7 |
| 20260504003929 | 74 | 23 | 0.9 | 2.6 | 0.00 | 0.00 | 0.00 | 28 | 1007.7 |
| 20260504003423 | 75 | 22 | 0.9 | 2.6 | 0.00 | 0.00 | 0.00 | 27 | 1007.9 |
| 20260504002918 | 76 | 23 | 0.0 | 2.6 | 0.00 | 0.00 | 0.00 | 27 | 1007.9 |
| 20260504001906 | 77 | 281 | 0.0 | 0.9 | 0.00 | 0.00 | 0.00 | 25 | 1008.1 |
| 20260504001400 | 77 | 281 | 0.9 | 3.5 | 0.00 | 0.00 | 0.00 | 27 | 1008.2 |
| 20260504000853 | 78 | 278 | 0.9 | 3.5 | 0.00 | 0.00 | 0.00 | 25 | 1008.3 |
| 20260504000347 | 78 | 263 | 0.9 | 3.5 | 0.00 | 0.00 | 0.00 | 25 | 1008.4 |
| 20260503235842 | 78 | 350 | 0.9 | 3.5 | 0.00 | 0.00 | 0.00 | 25 | 1008.4 |
| 20260503235335 | 78 | 340 | 0.9 | 2.6 | 0.00 | 0.00 | 0.00 | 25 | 1008.5 |
| 20260503234830 | 79 | 286 | 0.9 | 4.3 | 0.00 | 0.00 | 0.00 | 25 | 1008.4 |
| 20260503234322 | 78 | 284 | 1.7 | 4.3 | 0.00 | 0.00 | 0.00 | 24 | 1008.5 |
| 20260503233816 | 78 | 300 | 0.9 | 4.3 | 0.00 | 0.00 | 0.00 | 26 | 1008.5 |
| 20260503233312 | 78 | 325 | 0.0 | 2.6 | 0.00 | 0.00 | 0.00 | 25 | 1008.6 |
| 20260503232804 | 78 | 281 | 0.9 | 3.5 | 0.00 | 0.00 | 0.00 | 24 | 1008.6 |
| 20260503232258 | 78 | 281 | 1.7 | 3.5 | 0.00 | 0.00 | 0.00 | 24 | 1008.6 |
| 20260503231753 | 78 | 276 | 1.7 | 6.1 | 0.00 | 0.00 | 0.00 | 25 | 1008.7 |
| 20260503231247 | 77 | 304 | 1.7 | 5.2 | 0.00 | 0.00 | 0.00 | 25 | 1008.7 |
| 20260503230741 | 77 | 227 | 1.7 | 6.1 | 0.00 | 0.00 | 0.00 | 25 | 1008.3 |
| 20260503230237 | 78 | 275 | 1.7 | 6.1 | 0.00 | 0.00 | 0.00 | 24 | 1008.5 |
| 20260503225729 | 78 | 267 | 0.9 | 2.6 | 0.00 | 0.00 | 0.00 | 24 | 1008.7 |
| 20260503225223 | 78 | 290 | 1.7 | 6.1 | 0.00 | 0.00 | 0.00 | 24 | 1008.8 |
| 20260503224717 | 78 | 275 | 2.6 | 6.1 | 0.00 | 0.00 | 0.00 | 24 | 1008.8 |
| 20260503224212 | 78 | 225 | 1.7 | 7.0 | 0.00 | 0.00 | 0.00 | 25 | 1008.7 |
| 20260503223704 | 78 | 272 | 0.9 | 7.0 | 0.00 | 0.00 | 0.00 | 24 | 1008.8 |
| 20260503223159 | 78 | 314 | 1.7 | 4.3 | 0.00 | 0.00 | 0.00 | 24 | 1008.8 |
| 20260503222654 | 77 | 44 | 0.9 | 4.3 | 0.00 | 0.00 | 0.00 | 24 | 1008.8 |
| 20260503222148 | 78 | 26 | 0.9 | 4.3 | 0.00 | 0.00 | 0.00 | 25 | 1008.8 |
| 20260503221641 | 77 | 273 | 0.9 | 4.3 | 0.00 | 0.00 | 0.00 | 25 | 1008.9 |
| 20260503221136 | 77 | 38 | 2.6 | 7.8 | 0.00 | 0.00 | 0.00 | 26 | 1008.9 |
| 20260503220630 | 76 | 342 | 4.3 | 10.4 | 0.00 | 0.00 | 0.00 | 25 | 1009.0 |
| 20260503220123 | 77 | 22 | 4.3 | 10.4 | 0.00 | 0.00 | 0.00 | 25 | 1009.0 |
| 20260503215616 | 78 | 307 | 2.6 | 8.7 | 0.00 | 0.00 | 0.00 | 25 | 1009.0 |
| 20260503215110 | 78 | 51 | 2.6 | 9.6 | 0.00 | 0.00 | 0.00 | 25 | 1009.0 |
| 20260503214605 | 78 | 22 | 1.7 | 9.6 | 0.00 | 0.00 | 0.00 | 25 | 1009.0 |
| 20260503214059 | 78 | 31 | 0.9 | 8.7 | 0.00 | 0.00 | 0.00 | 26 | 1009.1 |
| 20260503213553 | 77 | 270 | 2.6 | 9.6 | 0.00 | 0.00 | 0.00 | 25 | 1009.2 |
| 20260503213048 | 77 | 33 | 3.5 | 9.6 | 0.00 | 0.00 | 0.00 | 24 | 1009.3 |
| 20260503212542 | 78 | 11 | 3.5 | 7.8 | 0.00 | 0.00 | 0.00 | 25 | 1009.3 |
| 20260503212034 | 77 | 298 | 2.6 | 7.0 | 0.00 | 0.00 | 0.00 | 26 | 1009.3 |
| 20260503211023 | 77 | 227 | 1.7 | 6.1 | 0.00 | 0.00 | 0.00 | 27 | 1009.5 |
| 20260503210517 | 76 | 275 | 2.6 | 6.1 | 0.00 | 0.00 | 0.00 | 26 | 1009.6 |
| 20260503205506 | 76 | 307 | 3.5 | 10.4 | 0.00 | 0.00 | 0.00 | 27 | 1009.9 |